Regional Weather Roundup
Issued by NWS

Home | Current Version | Previous Version | Text Only | Print | Product List | Glossary On
Versions: 1 2 3 4 5 6 7 8 9 10 11 12 13 14 15 16 17 18 19 20 21 22 23 24 25 26 27 28
000
ASUS46 KSEW 201510
RWRWA

WASHINGTON REGIONAL WEATHER ROUNDUP
NATIONAL WEATHER SERVICE SEATTLE WA
800 AM PDT WED SEP 20 2017

NOTE:"FAIR" INDICATES FEW OR NO CLOUDS BELOW 12,000 FEET WITH NO
SIGNIFICANT WEATHER AND/OR OBSTRUCTIONS TO VISIBILITY.

WAZ507-509-555>559-201600-
SEATTLE, TACOMA, EVERETT, AND VICINITY

CITY           SKY/WX    TMP DP  RH WIND       PRES   REMARKS
EVERETT        PTSUNNY   47  45  93 N5        29.64R
BOEING FIELD   CLOUDY    51  50  96 VRB3      29.64R
RENTON         CLOUDY    52  51  97 CALM      29.63S
SEATAC AIRPORT CLOUDY    51  50  96 W6        29.63S
JBLM-MCCHORD   RAIN      48  48 100 W6        29.64S FOG
PUYALLUP       DRIZZLE   48  48 100 CALM      29.64R
BREMERTON      CLOUDY    48  46  93 CALM      29.64S
JBLM-FT LEWIS  RAIN      48  48  99 SW5       29.64R
TACOMA NARROWS RAIN      48  48 100 S6        29.65R FOG
$$

WAZ001-503-506-510-514-515-201600-
NORTH INTERIOR

CITY           SKY/WX    TMP DP  RH WIND       PRES   REMARKS
BELLINGHAM     CLOUDY    49  49 100 CALM      29.66R
FRIDAY HARBOR  CLOUDY    50  49  96 VRB3      29.67S
EASTSOUND      CLOUDY    52  50  93 CALM      29.66S
PORT ANGELES   CLOUDY    48  45  89 SW3       29.67R
EDIZ HOOK      CLOUDY    50  47  89 W6        29.67R
PORT TOWNSEND  FAIR      46  46 100 NW7       29.66S
NAS WHIDBEY    MOCLDY    53  46  77 N5        29.69S
ARLINGTON      MOSUNNY   46  45  96 CALM      29.65R
BURLINGTON     PTSUNNY   50  48  93 N3        29.66R
$$

WAZ020-022-039-040-504-511-512-201600-
SOUTHWEST INTERIOR

CITY           SKY/WX    TMP DP  RH WIND       PRES   REMARKS
SHELTON        LGT RAIN  49  47  93 W3        29.62S
OLYMPIA        LGT RAIN  48  47  96 SW5       29.65R
CHEHALIS       LGT RAIN  48  48 100 CALM      29.65S
KELSO          HVY RAIN  50  49  96 NW5       29.64R FOG
VANCOUVER      PTSUNNY   54  50  86 VRB6      29.66R
SCAPPOOSE, OR  PTSUNNY  N/A N/A N/A CALM      29.64R
PORTLAND, OR   PTSUNNY   53  53 100 SW9       29.66R
$$

WAZ021-516-517-201600-
WASHINGTON COAST

CITY           SKY/WX    TMP DP  RH WIND       PRES   REMARKS
FORKS          MOCLDY    44  43  96 CALM      29.66R FOG
HOQUIAM        LGT RAIN  50  49  96 NW3       29.65R
ASTORIA, OR    CLOUDY    50  48  93 SW3       29.64R
$$

WAZ019-023-024-040-567>569-201600-
CASCADE MOUNTAINS AND COLUMBIA GORGE

CITY           SKY/WX    TMP DP  RH WIND       PRES   REMARKS
STAMPEDE PASS  NOT AVBL
TROUTDALE, OR  CLOUDY    54  49  83 SW9       29.66R
HOOD RIVER, OR CLOUDY    46  45  93 SE3       29.63F
THE DALLES, OR LGT RAIN  51  50  96 CALM      29.62F
$$

WAZ026-027-041>044-520-521-201600-
EAST SLOPES

CITY           SKY/WX    TMP DP  RH WIND       PRES   REMARKS
OMAK           MOSUNNY   42  39  89 CALM      29.61F
WENATCHEE      CLOUDY    44  37  76 NW8       29.61R
ELLENSBURG     CLOUDY    42  38  85 NE5       29.60R
YAKIMA         LGT RAIN  47  43  86 CALM      29.61F
SUNNYSIDE ARPT LGT RAIN  45  44  96 CALM      29.61F
YAKIMA TC      LGT RAIN  42  39  88 SE3       29.59S
$$

WAZ028-034-035-201600-
COLUMBIA BASIN

CITY           SKY/WX    TMP DP  RH WIND       PRES   REMARKS
EPHRATA        CLOUDY    42  34  73 N5        29.61R
MOSES LAKE     CLOUDY    42  39  89 CALM      29.61R
PASCO          LGT RAIN  52  46  80 SW7       29.63R
RICHLAND ARPT  RAIN      51  48  90 S3        29.63R
HERMISTON, OR  RAIN      50  49  96 W6        29.62R FOG
$$

WAZ036>038-201600-
NORTHEAST WASHINGTON

CITY           SKY/WX    TMP DP  RH WIND       PRES   REMARKS
SPOKANE GEIGER CLOUDY    44  42  93 S3        29.62S
SPOKANE FELTS  CLOUDY    47  43  86 S5        29.63S
FAIRCHILD AFB  CLOUDY    43  43 100 SW7       29.61S
COEURDALENE,ID CLOUDY    45  41  86 CALM      29.63F
DEER PARK      CLOUDY    43  41  93 W3        29.62F
$$

WAZ029>033-201600-
SOUTHEAST WASHINGTON

CITY           SKY/WX    TMP DP  RH WIND       PRES   REMARKS
PULLMAN        CLOUDY    45  38  76 SE9       29.63S
LEWISTON, ID   LGT RAIN  48  44  86 SE8       29.62F
WALLA WALLA    LGT RAIN  50  47  89 N5        29.59F
PENDLETON, OR  RAIN      46  45  96 S7        29.61R FOG
$$




USA.gov is the U.S. government's official web portal to all federal, state and local government web resources and services.